Starlink 30504

operational
NORAD ID: 57980 Int'l Des: 2023-151 Owner: SPXS Country: US Constellation: starlink
LEOCIRCULAR

Über Starlink 30504

Beschreibung wird geladen...

Live-Position

3D-Globus wird geladen...

Nächste Überflüge

Höhenverlauf

Altitude vs Time

uPlot chart will show altitude changes over time

Zweizeiliger Elementsatz

1 57980U 23151S 25303.83425253 -.00000285 00000-0 -10740-5 0 9990
2 57980 43.0010 247.5391 0000763 238.9371 121.1405 15.25909997117109
Epoch: 30. Okt. 2025 • Age: 6 hours

Aktueller Status

Höhe 498.9 km
Geschwindigkeit 7.62 km/s
Subsatellitenpunkt -37.67°S, 120.64°E
Startdatum 30. Sept. 2023
Alter 2 years
Typ internet

Technische Details

Klassifizierung Payload
Masse 730.00 kg
Trockenmasse 700.00 kg
Gesamtmasse 730.00 kg
Länge 0.30 m
Durchmesser 4.10 m
Spannweite 29.00 m
Form Box + pan
Hersteller SPXS
Bus-Typ Starlink V2M
Phasenstatus In Orbit
Besitzer/Staat SPXS/US

Große Konstellationen

Loading constellations...